DW3795 Weather Reports


Display with metric or nautical units.
time (UTC)temp
F
wind
direction
speed
MPH
gust
MPH
rain 1hr
in
rain 24hr
in
rain mn
in
humidity
%
barometer
mb
20260902140035 83 215 0.0 3.0 0.00 0.00 0.00 79 1018.2
20260902134537 81 219 0.0 1.0 0.00 0.00 0.00 83 1018.3
20260902133027 78 221 1.0 3.0 0.00 0.00 0.00 88 1018.1
20260902131525 77 223 0.0 2.0 0.00 0.00 0.00 92 1018.1
20260902130019 75 224 0.0 2.0 0.00 0.00 0.00 94 1018.2
20260902124518 74 221 1.0 3.0 0.00 0.00 0.00 95 1018.2
20260902123021 73 296 0.0 0.0 0.00 0.00 0.00 95 1018.1
20260902121514 72 310 0.0 0.0 0.00 0.00 0.00 95 1018.3
20260902120013 71 310 0.0 0.0 0.00 0.00 0.00 95 1018.1
20260902114514 70 310 0.0 0.0 0.00 0.00 0.00 94 1018.1
20260902113009 70 310 0.0 0.0 0.00 0.00 0.00 94 1018.0
20260902111507 70 310 0.0 0.0 0.00 0.00 0.00 94 1017.8
20260902110012 70 309 0.0 0.0 0.00 0.00 0.00 94 1017.7
20260902104510 70 309 0.0 0.0 0.00 0.00 0.00 94 1017.7
20260902103001 70 309 0.0 0.0 0.00 0.00 0.00 94 1017.5
20260902101602 70 309 0.0 0.0 0.00 0.00 0.00 93 1017.4
20260902100123 71 309 0.0 0.0 0.00 0.00 0.00 93 1017.3
20260902094557 71 309 0.0 0.0 0.00 0.00 0.00 93 1017.4
20260902093112 71 309 0.0 0.0 0.00 0.00 0.00 93 1017.3
20260902091557 71 309 0.0 0.0 0.00 0.00 0.00 93 1017.4
20260902090100 71 309 0.0 0.0 0.00 0.00 0.00 93 1017.3
20260902084557 72 309 0.0 0.0 0.00 0.00 0.00 93 1017.3
20260902083103 72 308 0.0 0.0 0.00 0.00 0.00 93 1017.3
20260902081609 72 308 0.0 0.0 0.00 0.00 0.00 93 1017.2
20260902080058 72 308 0.0 0.0 0.00 0.00 0.00 92 1017.1
20260902074548 72 308 0.0 0.0 0.00 0.00 0.00 92 1017.1
20260902073047 72 308 0.0 0.0 0.00 0.00 0.00 92 1017.2
20260902071558 73 308 0.0 0.0 0.00 0.00 0.00 92 1017.2
20260902070044 73 308 0.0 0.0 0.00 0.00 0.00 92 1017.1
20260902064545 73 308 0.0 0.0 0.00 0.00 0.00 91 1017.3
20260902063101 73 308 0.0 0.0 0.00 0.00 0.00 91 1017.2
20260902061545 74 308 0.0 0.0 0.00 0.00 0.00 91 1017.4
20260902060050 74 308 0.0 0.0 0.00 0.00 0.00 90 1017.1
20260902054636 74 308 0.0 0.0 0.00 0.00 0.00 90 1017.0
20260902053032 75 308 0.0 0.0 0.00 0.00 0.00 90 1016.9
20260902051530 75 308 0.0 0.0 0.00 0.00 0.00 89 1016.7
20260902050028 75 308 0.0 0.0 0.00 0.00 0.00 89 1016.6
20260902044538 75 308 0.0 0.0 0.00 0.00 0.00 88 1016.5
20260902043024 76 308 0.0 0.0 0.00 0.00 0.00 88 1016.5
20260902041522 76 308 0.0 0.0 0.00 0.00 0.00 87 1016.5
20260902040020 77 308 0.0 0.0 0.00 0.00 0.00 87 1016.5
20260902034519 77 308 0.0 0.0 0.00 0.00 0.00 86 1016.3
20260902033019 77 308 0.0 0.0 0.00 0.00 0.00 86 1016.3
20260902031529 78 308 0.0 0.0 0.00 0.00 0.00 85 1016.3
20260902030018 78 308 0.0 0.0 0.00 0.00 0.00 85 1016.2
20260902024517 78 308 0.0 0.0 0.00 0.00 0.00 84 1016.3
20260902023017 79 308 0.0 0.0 0.00 0.00 0.00 83 1016.2
20260902021521 79 308 0.0 0.0 0.00 0.00 0.00 83 1016.2
20260902020016 79 308 0.0 0.0 0.00 0.00 0.00 82 1016.1
20260902014535 80 308 0.0 0.0 0.00 0.00 0.00 81 1016.0
20260902013014 81 308 0.0 0.0 0.00 0.00 0.00 80 1015.6
20260902011514 81 308 0.0 0.0 0.00 0.00 0.00 79 1015.5
20260902010017 82 308 0.0 0.0 0.00 0.00 0.00 78 1015.4
20260902004513 82 308 0.0 0.0 0.00 0.00 0.00 77 1015.1
20260902003012 83 308 0.0 0.0 0.00 0.00 0.00 74 1015.1
20260902001512 84 308 0.0 0.0 0.00 0.00 0.00 72 1015.1
20260902000012 85 308 0.0 0.0 0.00 0.00 0.00 70 1015.3
20260901234527 87 308 0.0 1.0 0.00 0.00 0.00 69 1015.2
20260901233012 88 308 0.0 1.0 0.00 0.00 0.00 67 1015.1
20260901231510 89 308 0.0 1.0 0.00 0.00 0.00 64 1015.2
20260901230012 91 308 0.0 1.0 0.00 0.00 0.00 61 1015.4
20260901224507 92 308 0.0 1.0 0.00 0.00 0.00 58 1015.6
20260901223010 93 308 0.0 2.0 0.00 0.00 0.00 54 1015.5
20260901221521 94 327 0.0 3.0 0.00 0.00 0.00 51 1015.5
20260901220012 96 332 0.0 3.0 0.00 0.00 0.00 49 1015.4
20260901214505 98 345 0.0 3.0 0.00 0.00 0.00 49 1015.4
20260901213003 99 298 0.0 2.0 0.00 0.00 0.00 47 1015.5
20260901211502 99 296 0.0 2.0 0.00 0.00 0.00 45 1015.5
20260901210004 100 198 0.0 4.0 0.00 0.00 0.00 44 1015.4
20260901204600 100 339 1.0 4.0 0.00 0.00 0.00 44 1015.7
20260901203104 100 306 1.0 6.0 0.00 0.00 0.00 44 1015.8
20260901201557 100 344 1.0 3.0 0.00 0.00 0.00 43 1015.9
20260901200055 100 278 1.0 4.0 0.00 0.00 0.00 44 1015.8
20260901194553 100 224 0.0 4.0 0.00 0.00 0.00 43 1016.1
20260901193102 100 28 0.0 0.0 0.00 0.00 0.00 46 1016.2
20260901191549 99 356 2.0 4.0 0.00 0.00 0.00 46 1016.4
20260901190046 99 265 3.0 6.0 0.00 0.00 0.00 44 1016.5
20260901184546 99 313 1.0 4.0 0.00 0.00 0.00 47 1016.6
20260901183041 98 217 0.0 3.0 0.00 0.00 0.00 46 1016.6
20260901181541 98 283 2.0 6.0 0.00 0.00 0.00 49 1016.7
20260901180038 98 351 1.0 4.0 0.00 0.00 0.00 49 1016.9
20260901174534 97 260 2.0 5.0 0.00 0.00 0.00 50 1017.0
20260901173132 97 262 1.0 6.0 0.00 0.00 0.00 51 1017.0
20260901171529 97 217 1.0 5.0 0.00 0.00 0.00 53 1017.1
20260901170026 97 349 2.0 5.0 0.00 0.00 0.00 54 1017.2
20260901164524 96 270 1.0 5.0 0.00 0.00 0.00 54 1017.4
20260901163020 95 10 3.0 8.0 0.00 0.00 0.00 56 1017.6
20260901161532 95 10 1.0 3.0 0.00 0.00 0.00 60 1017.7
20260901160025 93 359 1.0 4.0 0.00 0.00 0.00 62 1018.0
20260901154508 92 253 0.0 0.0 0.00 0.00 0.00 61 1018.3
20260901153004 92 198 2.0 6.0 0.00 0.00 0.00 62 1018.4
20260901151559 90 275 0.0 3.0 0.00 0.00 0.00 66 1018.5
20260901150058 89 205 0.0 5.0 0.00 0.00 0.00 69 1018.7
20260901144551 87 283 0.0 0.0 0.00 0.00 0.00 74 1018.8
20260901143046 85 327 0.0 0.0 0.00 0.00 0.00 78 1018.9
20260901141542 82 328 0.0 0.0 0.00 0.00 0.00 82 1018.8